#timestamp,LO_Frequency,Hit,StdDev 
1524726015.8,286047000.3,N
1524726035.6,286047001.2,N
1524726055.5,286047001.2,N
1524726075.3,286046998.3,N
1524726095.2,286046998.5,N
1524726115.9,286046998.5,N
1524726135.7,286046998.8,N
1524726155.6,286047000.6,N
1524726175.4,286047000.0,N
1524726195.2,286047002.6,N
1524726215.1,286046999.7,N
1524726216.0,286046999.7,N
1524726235.8,286047002.2,N
1524726255.7,286047000.7,N
1524726275.5,286047000.5,N
1524726295.3,286046998.1,N
1524726315.2,286047000.7,N
1524726335.0,286047000.9,N
1524726335.9,286047000.9,N
1524726355.8,286047000.7,N
1524726375.6,286046999.9,N
1524726395.4,286047001.5,N
1524726415.3,286047001.5,N
1524726435.1,286047002.2,N
1524726455.8,286046999.9,N
1524726475.7,286047000.5,N
1524726495.5,286046999.7,N
1524726515.4,286047002.6,N
1524726535.2,286047002.5,N
1524726555.0,286047001.7,N
1524726555.9,286047001.7,N
1524726575.8,286047001.3,N
1524726595.6,286047004.4,Y
1524726615.5,286047000.1,P
1524726635.3,286047000.5,N
1524726655.1,286046999.8,N
1524726675.9,286046999.7,N
1524726695.7,286047002.7,Y
1524726715.6,286047000.1,P
1524726735.4,286047000.0,N
1524726755.2,286047001.2,P
1524726775.1,286047000.8,N
1524726776.0,286047000.8,N
1524726795.8,286047000.5,N
1524726815.6,286047000.3,N
1524726835.5,286047001.2,N
1524726855.3,286047000.9,N
1524726875.2,286047000.9,N
1524726895.9,286047000.8,N
1524726915.7,286046999.2,N
1524726935.6,286046999.4,N
1524726955.4,286046999.3,N
1524726975.2,286046996.6,Y
1524726995.1,286046996.9,P
1524726996.0,286046996.9,N
1524727015.8,286046996.7,N
1524727035.7,286046997.2,N
1524727055.5,286046997.5,N
1524727075.3,286046998.0,N
1524727095.2,286046995.6,Y
1524727115.0,286046999.6,P
1524727115.9,286046999.6,N
1524727135.7,286046999.6,N
1524727155.6,286046997.4,Y
1524727175.4,286046999.0,P
1524727195.3,286047001.1,P
1524727215.1,286046998.6,N
1524727235.8,286046998.6,N
1524727255.7,286047000.9,N
1524727275.5,286047001.0,N
1524727295.4,286046998.1,N
1524727315.2,286047000.8,N
1524727335.0,286047001.0,N
1524727335.9,286047001.0,N
1524727355.8,286046998.1,N
1524727375.6,286047000.8,N
1524727395.4,286047000.7,N
1524727415.3,286046998.1,N
1524727435.1,286046998.8,N
1524727455.9,286046998.1,N
1524727475.7,286046998.3,N
1524727495.5,286046998.7,N
1524727515.4,286046999.3,N
1524727535.2,286046999.3,N
1524727555.0,286046999.5,N
1524727555.9,286046999.5,N
1524727575.8,286046999.0,N
1524727595.6,286046997.0,N
1524727615.5,286046997.8,N
1524727635.3,286046999.6,N
1524727655.1,286046999.0,N
1524727675.9,286046997.3,N
1524727695.7,286046997.8,N
1524727715.5,286046997.9,N
1524727735.4,286046997.4,N
1524727755.2,286046997.5,N
1524727775.1,286046997.4,N
1524727776.0,286046997.4,N
1524727795.8,286046997.8,N
1524727815.6,286046998.0,N
1524727835.5,286046995.3,Y
1524727855.3,286046997.7,P
1524727875.2,286046996.8,P
1524727895.9,286046996.9,P
1524727915.7,286046998.5,N
1524727935.6,286046998.6,N
1524727955.4,286046998.5,N
1524727975.2,286046998.4,N
1524727995.1,286046998.3,N
1524727996.0,286046998.3,N
1524728015.8,286046999.0,N
1524728035.7,286046999.6,N
1524728055.5,286046997.1,Y
1524728075.3,286046998.1,P
1524728095.2,286047001.1,P
1524728115.0,286047000.3,N
1524728115.9,286047000.3,N
1524728135.8,286046999.7,N
1524728155.6,286047002.3,N
1524728175.4,286047002.3,N
1524728195.3,286047001.6,N
1524728215.1,286047000.0,N
1524728235.9,286047000.7,N
1524728255.7,286046999.7,N
1524728275.5,286047002.6,N
1524728295.4,286047000.1,N
1524728315.2,286047001.0,N
1524728335.0,286047000.0,N
1524728335.9,286047000.0,N
1524728355.8,286046999.9,N
1524728375.6,286046998.1,N
1524728395.5,286046998.6,N
1524728415.3,286046998.7,N
1524728435.1,286046998.1,N
1524728455.9,286046998.3,N
1524728475.7,286046999.5,N
1524728495.5,286046996.6,N
1524728515.4,286046999.0,N
1524728535.2,286046998.8,N
1524728555.1,286046999.1,N
1524728556.0,286046999.1,N
1524728575.8,286046999.3,N
1524728595.6,286046998.2,N
1524728615.5,286047002.3,N
1524728635.3,286047001.9,N
1524728655.2,286047001.7,N
1524728675.9,286047001.3,N
1524728695.7,286047002.6,N
1524728715.6,286046998.6,N
1524728735.4,286046998.5,N
1524728755.2,286046999.1,N
1524728775.1,286046998.9,N
1524728776.0,286046998.9,N
1524728795.8,286046999.3,N
1524728815.7,286047000.8,N
1524728835.5,286047000.7,N
1524728855.3,286047000.4,N
1524728875.2,286046999.8,N
1524728895.0,286047002.5,N
1524728895.9,286047002.5,N
1524728915.8,286047001.5,N
1524728935.6,286047001.9,N
1524728955.4,286047001.9,N
1524728975.3,286047001.5,N
1524728995.1,286047001.6,N
1524729015.9,286047002.5,N
1524729035.7,286047000.2,N
1524729055.5,286046999.7,N
1524729075.4,286047000.2,N
1524729095.2,286047002.3,N
1524729115.0,286047001.3,N
1524729115.9,286047001.3,N
1524729135.8,286047003.8,N
1524729155.6,286047001.4,N
1524729175.5,286047003.8,N
1524729195.3,286047003.9,N
1524729215.1,286047003.6,N
1524729235.9,286047003.7,N
1524729255.7,286047003.9,N
1524729275.5,286047003.6,N
1524729295.4,286047003.7,N
1524729315.2,286047005.6,Y
1524729335.1,286047001.7,P
1524729336.0,286047001.7,P
1524729355.8,286047002.8,P
1524729375.6,286047000.8,N
1524729395.5,286047000.0,N
1524729415.3,286047002.8,Y
1524729435.2,286046998.6,P
1524729455.9,286047001.2,N
1524729475.7,286047000.5,N
1524729495.6,286047000.0,N
1524729515.4,286047000.1,N
1524729535.2,286047000.1,N
1524729555.1,286046999.7,N
1524729556.0,286046999.7,N
1524729575.8,286047000.9,N
1524729595.7,286047000.5,N
